STARLINK-1790 (46691 NORAD) Tracking and Keplerian Element Data

This shows tracking and keplerian element data for the satellite.

Feedback or suggestion? Click here.




ElementValue
Catalog46691
NameSTARLINK-1790
Epoch Orbit180
Epoch Day335.83336806
Epoch Year2020
RAAN256.307
Inclination53.0563
Eccentricity0.0001242
Argument of Perigee70.9598
Mean Anonmoly26.7081
Mean Motion15.62751702
Decay Rate-0.00039544
L11 46691U 20073X 20335.83336806 -.00039544 00000-0 -42817-3 0 9990
L22 46691 53.0563 256.3070 0001242 70.9598 26.7081 15.62751702 1809

Live tracking and technical data element details for STARLINK-1790 (NORAD 46691). STARLINK-1790 can be tracked NOW for your location showing map with azimuth and elevation plus other details from your city location.

Track the satellite on the map from your city or location and see movement details for azimuth, elevation, latitude, longitude, range, height, and movement on the map or in text.







IsCatalogInMostPopularTable: catalog: 46691, numindb: 8
Update: records affected: 1



GetName: 46691 STARLINK-1790

Hit Count: updated at: Tue, 01 Dec 2020 20:20:47 GMT